Temperature
7 7 7 7 7 7 7 7 7 7 7 7 7 7 7 8 8 7 7 7 7 7 7 7 7 6 6 6 6 5 5 5 4 5 5 5 5 5 5 5 5 5 5
6 6 6 6 6 7 7 6 6 6 7 7 7 7 7 7 7 7 7 7 6 6 6 6 6 5 5 5 5 5 5 4 4 4 4 4 5 5 5 5 5 5 5
6 6 6 6 6 6 6 6 6 6 6 6 6 6 6 6 6 6 6 6 6 6 5 5 5 5 5 5 4 4 4 4 3 3 3 4 4 4 4 4 4 4 4
5 6 6 6 6 6 6 6 5 6 6 6 6 6 5 5 5 5 5 5 5 5 5 5 4 4 4 4 4 3 3 3 3 3 3 3 3 3 3 3 4 4 4
5 5 5 5 5 5 5 5 5 5 5 5 5 5 5 5 5 5 5 5 5 5 4 4 4 4 4 3 3 3 3 2 2 2 2 2 2 2 2 2 3 3 3
5 5 5 5 5 5 5 5 5 5 5 5 5 5 5 5 5 5 4 4 4 4 4 4 4 3 3 3 3 2 2 2 2 2 2 2 1 2 2 2 2 2 2
5 5 5 5 5 5 5 5 5 4 5 5 4 4 4 4 4 4 4 4 4 4 4 3 3 3 3 2 2 2 2 2 2 1 1 1 1 1 1 1 1 2 2
5 5 4 4 4 4 4 4 4 4 4 4 4 4 4 4 4 4 4 4 4 3 3 3 3 2 2 2 2 2 2 2 2 1 1 1 1 1 1 1 1 1 2
5 5 4 4 4 4 4 4 4 4 4 4 4 4 4 4 4 3 3 3 3 3 3 2 2 2 2 2 1 1 1 1 1 1 1 1 1 1 1 1 1 1 1
5 4 4 4 4 4 4 4 4 4 4 3 3 3 3 3 3 3 3 3 2 2 2 2 1 1 1 1 1 1 1 1 1 1 1 1 1 1 1 0 0 0 0
4 4 4 4 3 3 3 3 3 3 3 3 3 3 3 3 3 2 2 2 2 2 1 1 1 1 1 0 0 -0 -0 0 0 0 0 0 0 0 0 0 0 -0 -0
4 4 4 3 3 3 3 3 3 3 3 3 2 2 2 2 2 2 2 1 1 1 1 1 1 0 0 -0 -0 -1 -1 -0 -0 -0 -0 -0 -0 -0 -0 -0 -0 -0 -0
4 4 3 3 3 3 3 3 3 3 2 2 2 2 2 2 2 1 1 1 1 1 1 0 0 0 -0 -0 -1 -1 -1 -1 -1 -1 -1 -1 -1 -1 -1 -1 -1 -1 -1
4 3 3 3 3 2 2 2 2 2 2 2 2 2 1 1 1 1 1 0 0 0 -0 -0 -0 -1 -1 -1 -1 -1 -1 -1 -2 -2 -2 -2 -1 -1 -1 -1 -1 -1 -1
4 3 3 3 2 2 2 2 2 2 1 2 1 1 1 1 1 0 0 0 -0 -0 -1 -1 -1 -1 -1 -1 -1 -2 -2 -2 -2 -2 -2 -2 -2 -2 -2 -2 -2 -2 -2
3 3 3 2 2 2 2 1 1 1 1 1 1 1 1 0 0 0 -0 -0 -1 -1 -1 -1 -1 -2 -2 -2 -2 -2 -2 -3 -3 -3 -3 -3 -3 -3 -3 -2 -2 -2 -2
3 3 3 2 2 1 1 1 1 1 0 0 0 0 0 -0 -0 -0 -0 -1 -1 -1 -2 -2 -2 -2 -2 -3 -3 -3 -3 -3 -3 -3 -3 -3 -3 -3 -3 -3 -3 -3 -3
3 3 2 2 2 1 1 1 0 0 0 0 -0 -0 -0 -1 -1 -1 -1 -1 -1 -2 -2 -2 -2 -3 -3 -3 -3 -3 -3 -4 -4 -4 -4 -4 -4 -4 -4 -4 -4 -3 -3
3 2 2 2 1 1 0 0 0 -0 -0 -0 -0 -1 -1 -1 -1 -1 -2 -2 -2 -2 -2 -3 -3 -3 -3 -4 -4 -4 -4 -4 -4 -4 -4 -4 -4 -4 -4 -4 -4 -4 -4
2 2 1 1 1 0 -0 -0 -0 -1 -1 -1 -1 -1 -1 -2 -2 -2 -2 -2 -3 -3 -3 -3 -4 -4 -4 -4 -4 -4 -4 -4 -5 -5 -4 -4 -4 -4 -4 -4 -4 -4 -4
2 1 1 0 0 -0 -0 -1 -1 -1 -1 -1 -1 -2 -2 -2 -2 -2 -2 -3 -3 -3 -4 -4 -4 -4 -4 -4 -4 -4 -4 -5 -5 -5 -5 -5 -5 -5 -5 -5 -5 -4 -4
1 1 1 0 -0 -1 -1 -1 -1 -1 -2 -2 -2 -2 -2 -2 -3 -3 -3 -3 -3 -4 -4 -4 -4 -5 -5 -5 -5 -5 -5 -5 -5 -5 -5 -5 -5 -5 -5 -5 -5 -5 -5
1 1 0 -0 -1 -1 -1 -2 -2 -2 -2 -2 -2 -3 -3 -3 -3 -3 -3 -3 -4 -4 -4 -5 -5 -5 -5 -5 -5 -5 -5 -5 -5 -5 -5 -5 -5 -5 -5 -5 -5 -5 -5
1 0 -0 -1 -1 -1 -1 -2 -2 -2 -2 -3 -3 -3 -3 -3 -3 -3 -4 -4 -4 -4 -5 -5 -5 -5 -5 -5 -5 -6 -6 -6 -6 -6 -6 -6 -6 -6 -6 -6 -6 -6 -5
0 -0 -1 -1 -1 -1 -2 -2 -2 -3 -3 -3 -3 -3 -3 -4 -4 -4 -4 -4 -5 -5 -5 -5 -5 -6 -6 -6 -6 -6 -6 -6 -6 -6 -6 -6 -6 -6 -6 -6 -6 -6 -6
-0 -1 -1 -1 -2 -2 -2 -2 -3 -3 -3 -3 -3 -4 -4 -4 -4 -4 -4 -5 -5 -5 -5 -5 -6 -6 -6 -6 -6 -6 -6 -6 -6 -6 -6 -6 -6 -6 -6 -6 -6 -6 -6
Wind_Speed
1 2 2 2 2 2 2 1 1 1 2 2 2 2 2 2 2 2 1 1 1 1 1 1 2 2 2 2 3 3 3 4 7 7 4 5 5 7 8 9 11 10 11
1 2 2 2 2 2 2 1 1 1 1 1 2 2 2 2 2 2 2 1 2 2 2 1 2 2 2 3 2 3 3 4 6 9 6 5 6 7 7 8 8 9 9
1 2 2 2 2 2 1 1 1 1 1 1 2 2 1 1 1 1 2 2 2 2 2 3 3 3 3 3 3 3 3 4 4 6 7 6 6 5 6 7 7 7 8
2 2 2 1 1 1 1 1 1 1 1 1 2 2 1 1 1 1 1 1 1 1 1 2 3 4 4 3 3 4 3 4 5 5 6 6 6 5 5 6 7 6 7
3 3 2 2 2 1 1 1 1 1 1 1 2 1 1 1 1 1 1 2 2 1 2 2 3 3 3 3 3 3 3 4 5 5 6 6 6 5 5 5 8 7 6
4 3 3 2 2 2 1 1 1 1 1 1 1 1 1 0 1 1 1 1 2 2 2 2 3 3 3 5 5 6 5 5 5 5 6 7 7 6 6 6 6 6 5
4 3 3 3 2 2 2 2 1 1 1 1 1 1 1 0 0 1 1 1 1 1 2 2 2 3 4 4 5 7 7 8 7 6 7 7 7 7 6 6 6 6 6
4 4 4 3 3 2 2 2 1 1 1 1 1 1 1 0 0 1 1 0 0 1 2 2 2 3 3 4 4 5 5 5 6 6 6 7 7 6 6 6 7 7 6
5 4 4 4 3 3 3 2 2 1 1 1 1 1 0 1 1 1 2 0 1 2 2 2 2 3 6 6 4 5 5 5 6 7 7 7 8 8 5 4 4 4 5
6 5 4 4 4 4 3 2 1 1 1 1 0 0 1 1 1 1 1 0 1 2 2 3 4 5 6 6 4 4 5 6 5 6 6 6 5 5 5 4 4 4 3
5 4 4 4 4 4 3 2 2 2 1 1 1 1 1 1 1 2 2 1 1 2 2 3 3 6 6 6 5 4 6 5 4 4 4 5 4 4 4 4 4 4 4
5 5 4 4 4 3 3 3 2 2 2 1 1 1 1 2 2 2 3 2 2 1 2 3 3 5 5 6 5 6 6 5 3 3 3 4 4 4 5 5 5 5 5
5 5 4 4 3 3 4 4 3 2 2 2 2 2 2 2 2 3 3 3 3 2 2 4 4 5 5 4 5 6 4 3 3 3 4 4 4 5 5 4 4 4 4
7 6 5 4 4 3 3 3 3 3 3 3 2 2 2 2 2 2 2 2 2 2 2 3 4 4 3 4 4 4 3 2 3 3 4 4 4 4 4 3 3 3 3
7 6 6 5 5 4 4 4 4 4 5 5 4 3 3 3 3 3 2 2 2 2 2 1 1 2 2 2 3 3 3 3 3 3 3 4 4 4 4 3 3 3 3
7 7 6 5 5 4 4 2 3 4 5 6 5 4 4 4 4 3 3 3 3 2 0 1 1 2 2 3 3 3 3 3 3 3 4 4 4 4 4 4 3 2 3
8 7 6 5 5 5 5 4 3 2 3 4 5 5 4 4 4 3 2 2 2 1 1 1 2 2 3 3 3 3 3 4 3 3 3 4 4 4 4 4 4 3 3
8 8 7 6 6 6 5 5 5 4 3 2 3 4 4 4 3 3 2 1 1 1 1 2 2 3 3 3 3 3 3 3 3 3 3 3 3 3 3 3 3 3 3
8 6 6 6 6 6 5 5 5 5 4 3 2 2 3 3 3 3 2 1 2 2 2 3 3 3 3 3 3 3 3 3 4 3 3 3 3 3 3 3 3 4 3
7 10 9 6 6 6 5 5 5 5 4 4 4 3 2 2 2 2 2 2 2 3 3 3 3 3 3 3 3 3 3 3 4 4 4 3 3 3 4 4 4 3 3
7 8 10 7 6 6 6 6 6 5 5 5 4 5 5 4 4 4 3 3 3 3 3 3 3 3 3 3 3 3 4 4 3 3 4 4 4 3 3 3 3 3 2
7 7 7 7 6 6 6 6 5 5 6 5 4 4 7 4 3 4 4 4 3 3 3 3 3 3 3 3 3 3 4 4 4 4 4 4 4 4 3 3 2 2 2
7 7 7 6 6 8 7 6 6 6 5 5 4 4 4 4 4 4 4 4 3 3 3 3 3 3 3 3 4 3 4 4 4 4 4 4 4 3 3 3 3 2 2
8 8 8 7 7 7 7 6 6 6 5 5 5 5 4 4 4 4 4 3 3 3 3 3 4 4 5 4 4 5 6 6 5 4 4 4 4 3 3 2 3 2 2
8 8 8 7 7 7 7 6 6 6 6 5 5 5 4 4 4 4 4 3 4 4 4 4 4 4 5 5 6 6 7 8 6 4 4 3 4 3 3 2 2 2 2
8 8 7 7 7 7 7 7 7 6 6 6 5 5 5 5 4 4 4 3 3 4 4 4 4 5 6 6 7 8 8 8 7 6 4 3 3 3 2 2 2 2 2
Wind_Direction
65 78 80 76 83 97 105 107 118 122 127 132 138 138 137 135 134 137 152 162 170 213 242 236 251 242 244 252 248 249 256 257 271 282 272 281 282 282 294 289 283 276 276
102 93 91 87 86 85 84 80 107 126 133 146 143 137 137 138 137 144 150 161 170 195 219 226 243 241 244 253 253 260 267 267 270 283 286 284 279 276 278 280 291 285 280
122 109 102 96 94 92 89 78 91 103 91 101 107 126 137 131 122 137 166 189 204 210 213 219 237 235 245 256 263 268 275 285 279 283 288 283 283 282 286 288 288 283 289
145 136 142 154 149 144 130 106 101 101 100 99 104 111 116 121 138 163 172 190 207 217 223 233 240 237 240 247 259 263 272 278 280 283 288 293 290 292 288 295 303 292 288
161 164 185 183 162 144 134 119 105 106 108 116 111 99 97 119 142 139 179 189 202 225 249 257 260 259 256 262 269 268 268 270 278 284 290 299 297 304 296 292 294 296 289
179 188 191 176 159 157 154 133 113 106 97 109 128 139 133 106 69 98 146 179 209 222 249 277 284 272 281 288 288 286 276 271 275 276 280 291 288 291 286 292 294 301 294
186 191 190 183 177 184 162 135 140 147 83 91 144 146 150 150 44 56 77 142 210 245 268 280 293 296 295 286 291 295 289 284 275 268 273 278 281 286 284 281 289 291 283
186 191 192 187 187 180 164 169 186 178 174 161 174 177 182 236 20 46 45 55 316 299 288 278 281 291 294 301 306 303 292 288 286 277 273 277 279 280 269 265 271 285 287
195 199 199 191 186 181 187 197 195 170 170 188 192 182 202 282 350 15 19 31 320 302 304 308 301 297 306 314 311 303 299 296 302 298 295 298 304 304 300 289 296 300 300
205 203 198 190 187 193 200 198 187 172 183 190 219 214 224 268 326 337 347 163 298 306 312 307 304 305 312 315 299 297 301 303 312 314 314 319 316 313 314 282 270 277 292
195 186 187 190 191 194 193 184 179 176 171 188 234 270 261 274 299 302 307 255 251 285 298 305 304 313 315 317 315 303 304 313 311 302 303 309 311 309 309 303 282 261 266
177 180 188 193 192 185 180 183 176 169 171 205 232 285 285 274 286 287 295 290 289 266 278 290 297 314 320 321 322 324 322 323 321 314 311 310 311 310 305 302 296 284 265
175 184 190 191 193 187 182 184 177 176 184 207 218 248 278 284 280 287 296 299 297 293 276 287 301 315 321 322 327 329 327 326 326 323 316 312 306 300 300 301 304 304 299
183 188 186 185 192 190 187 186 186 190 196 206 218 238 260 272 273 279 287 288 293 287 284 289 301 312 325 330 331 327 325 323 321 316 317 314 315 314 310 307 306 315 314
186 188 187 190 189 190 195 200 200 205 201 204 215 217 223 245 257 271 282 279 273 270 289 326 328 327 327 327 328 328 327 324 316 319 317 320 321 320 314 316 310 310 306
188 191 190 189 189 188 189 210 229 221 223 225 220 218 232 243 256 264 274 279 279 277 296 313 305 303 301 304 308 312 312 312 311 312 314 314 314 313 315 316 310 300 298
191 191 189 189 190 189 189 195 215 244 233 230 228 233 242 246 249 261 271 276 265 251 228 268 285 292 301 304 300 296 296 301 301 300 302 306 306 306 310 312 313 304 296
190 190 188 191 192 191 194 197 201 208 225 247 244 238 243 246 253 255 250 233 252 261 259 259 275 283 289 295 296 296 297 301 301 302 302 304 302 301 305 308 307 306 304
188 188 187 188 190 190 192 196 201 206 214 226 241 247 238 242 247 247 230 217 232 246 256 265 271 276 282 285 289 292 294 295 298 299 299 299 295 294 295 297 297 297 290
193 190 183 185 188 188 191 197 201 205 211 215 221 223 211 201 220 236 232 230 236 246 252 260 266 269 274 278 284 289 293 293 299 299 301 300 292 289 291 290 289 287 276
187 189 184 184 190 193 196 200 201 203 209 216 223 220 209 204 215 223 227 231 236 244 251 259 265 269 271 275 278 281 282 284 286 289 293 295 296 290 285 285 286 282 281
182 184 186 191 193 195 198 199 201 206 211 217 223 224 222 216 214 223 231 235 237 240 244 250 256 259 259 262 269 275 279 282 287 289 287 287 287 287 286 286 291 291 281
181 184 188 192 193 200 202 199 202 207 210 212 213 215 216 216 219 224 230 236 238 242 245 246 253 260 261 258 256 259 267 274 280 284 284 284 283 280 280 281 281 280 272
183 188 192 193 193 195 197 200 203 206 208 211 212 214 217 219 222 225 226 230 234 241 243 244 250 255 261 264 265 264 265 271 272 261 264 271 274 273 268 272 268 268 252
186 189 192 194 195 198 200 201 203 205 208 211 212 214 215 218 223 226 225 224 229 239 246 248 248 250 254 261 268 272 276 281 282 271 254 261 267 264 260 261 263 261 238
189 190 192 193 196 197 199 203 205 205 207 210 212 212 212 215 220 223 223 223 227 235 243 247 247 251 258 260 266 273 279 283 284 278 262 255 262 261 255 247 244 239 219
Height
1455 1455 1455 1455 1456 1456 1456 1456 1457 1458 1458 1459 1459 1460 1460 1461 1462 1463 1464 1465 1466 1466 1466 1466 1466 1466 1466 1466 1466 1465 1465 1463 1460 1456 1456 1454 1452 1450 1448 1446 1444 1442 1440
1454 1454 1454 1454 1454 1454 1454 1454 1455 1455 1456 1456 1457 1457 1458 1458 1459 1460 1460 1461 1462 1462 1462 1462 1462 1461 1461 1461 1461 1460 1459 1458 1456 1452 1450 1448 1446 1444 1442 1440 1437 1435 1433
1453 1453 1453 1453 1453 1453 1453 1453 1453 1453 1453 1454 1454 1454 1455 1455 1456 1457 1457 1458 1458 1458 1458 1458 1457 1457 1457 1456 1456 1455 1454 1453 1451 1448 1444 1442 1440 1438 1436 1433 1431 1429 1427
1452 1452 1452 1452 1452 1451 1451 1451 1451 1451 1451 1451 1452 1452 1452 1453 1454 1454 1455 1455 1455 1455 1454 1454 1454 1453 1452 1452 1451 1450 1449 1448 1446 1444 1440 1437 1435 1433 1431 1427 1424 1422 1420
1450 1450 1450 1450 1450 1449 1449 1449 1449 1449 1449 1449 1449 1450 1450 1451 1451 1451 1452 1451 1451 1451 1451 1450 1450 1449 1448 1448 1447 1446 1445 1443 1441 1439 1436 1433 1430 1428 1425 1423 1420 1417 1414
1448 1448 1449 1448 1448 1448 1448 1448 1448 1448 1447 1447 1447 1448 1448 1448 1449 1449 1449 1448 1448 1448 1447 1446 1446 1445 1444 1444 1443 1441 1440 1439 1436 1435 1432 1429 1426 1424 1422 1419 1416 1413 1408
1446 1446 1447 1447 1446 1446 1446 1446 1446 1446 1446 1446 1446 1446 1446 1446 1446 1446 1446 1445 1445 1444 1443 1442 1441 1441 1440 1439 1438 1437 1435 1434 1432 1431 1427 1425 1422 1420 1418 1415 1413 1410 1406
1444 1444 1444 1444 1444 1444 1444 1444 1444 1444 1444 1444 1444 1444 1444 1444 1444 1443 1443 1442 1441 1441 1440 1439 1438 1437 1436 1435 1433 1432 1430 1428 1427 1426 1424 1421 1419 1417 1415 1412 1409 1406 1403
1441 1441 1442 1442 1442 1442 1442 1442 1442 1442 1442 1442 1442 1442 1442 1442 1441 1441 1440 1439 1438 1438 1437 1436 1435 1433 1432 1431 1429 1427 1425 1424 1422 1421 1419 1417 1415 1413 1411 1408 1405 1402 1399
1438 1439 1439 1439 1440 1440 1440 1440 1440 1440 1440 1440 1440 1440 1439 1439 1438 1438 1438 1436 1435 1434 1433 1432 1431 1430 1429 1427 1425 1423 1420 1419 1417 1416 1414 1412 1410 1408 1406 1404 1402 1399 1396
1435 1436 1436 1437 1437 1437 1438 1438 1438 1438 1438 1438 1438 1437 1437 1436 1436 1435 1435 1433 1432 1431 1430 1429 1428 1427 1425 1423 1421 1419 1417 1416 1414 1412 1410 1408 1406 1404 1402 1400 1398 1397 1394
1432 1432 1433 1434 1434 1434 1435 1435 1436 1436 1435 1435 1435 1434 1434 1433 1433 1432 1431 1430 1429 1428 1427 1426 1424 1423 1421 1420 1418 1416 1414 1412 1410 1408 1405 1403 1401 1399 1398 1396 1394 1393 1391
1428 1429 1430 1430 1431 1431 1432 1432 1432 1433 1432 1432 1432 1431 1431 1430 1430 1429 1428 1427 1426 1425 1424 1422 1421 1420 1418 1416 1414 1413 1411 1408 1406 1404 1402 1400 1398 1396 1394 1392 1391 1389 1388
1424 1425 1426 1427 1427 1428 1428 1429 1429 1429 1429 1429 1428 1428 1428 1427 1426 1426 1425 1424 1423 1421 1420 1419 1417 1416 1414 1413 1411 1409 1407 1406 1403 1401 1399 1397 1395 1393 1391 1389 1387 1385 1384
1420 1421 1422 1423 1423 1424 1424 1425 1425 1425 1426 1426 1425 1425 1424 1424 1423 1423 1422 1421 1419 1418 1417 1415 1413 1412 1410 1409 1408 1406 1404 1403 1401 1398 1396 1394 1391 1389 1387 1386 1384 1383 1381
1415 1416 1417 1418 1419 1419 1420 1421 1421 1422 1422 1422 1421 1421 1421 1421 1420 1419 1418 1417 1416 1415 1414 1412 1410 1409 1407 1406 1404 1403 1401 1400 1398 1396 1394 1391 1389 1387 1385 1384 1383 1381 1380
1410 1411 1413 1413 1414 1415 1415 1416 1416 1417 1418 1418 1418 1417 1417 1417 1416 1416 1415 1414 1413 1412 1411 1409 1407 1406 1405 1403 1402 1400 1399 1397 1395 1393 1391 1389 1387 1385 1383 1382 1380 1379 1378
1405 1407 1408 1409 1409 1410 1411 1411 1412 1412 1413 1413 1414 1414 1413 1413 1412 1412 1411 1411 1409 1408 1407 1406 1405 1403 1402 1400 1399 1397 1395 1394 1392 1390 1388 1386 1385 1383 1381 1380 1378 1377 1376
1399 1401 1402 1403 1404 1405 1406 1407 1407 1408 1408 1409 1409 1409 1409 1409 1408 1408 1407 1406 1405 1405 1404 1403 1401 1400 1399 1397 1396 1394 1392 1391 1389 1387 1385 1384 1382 1381 1379 1378 1376 1375 1374
1394 1395 1397 1398 1399 1400 1401 1402 1402 1403 1403 1404 1404 1404 1404 1404 1404 1403 1403 1402 1402 1401 1400 1399 1398 1397 1395 1394 1392 1391 1389 1387 1386 1384 1382 1381 1379 1378 1377 1375 1374 1373 1372
1388 1389 1391 1392 1393 1394 1396 1396 1397 1398 1399 1399 1400 1400 1400 1400 1399 1399 1399 1398 1397 1397 1396 1395 1394 1393 1391 1390 1388 1387 1385 1384 1382 1381 1380 1378 1377 1375 1374 1373 1372 1371 1370
1381 1383 1384 1386 1387 1389 1390 1391 1392 1393 1394 1394 1395 1395 1396 1395 1395 1395 1394 1394 1393 1393 1392 1391 1390 1389 1388 1386 1385 1383 1382 1380 1379 1378 1377 1375 1374 1373 1372 1370 1369 1369 1368
1375 1377 1378 1380 1382 1383 1384 1386 1387 1388 1389 1389 1390 1390 1390 1390 1390 1390 1390 1389 1389 1388 1388 1387 1386 1385 1384 1383 1381 1380 1378 1377 1376 1375 1373 1372 1371 1370 1369 1368 1367 1366 1366
1369 1371 1373 1374 1376 1377 1378 1380 1381 1382 1383 1384 1385 1385 1385 1386 1386 1385 1385 1385 1385 1384 1383 1382 1382 1381 1380 1378 1377 1376 1375 1374 1372 1371 1370 1369 1368 1367 1367 1366 1365 1365 1365
1363 1365 1367 1368 1370 1371 1373 1374 1375 1377 1378 1379 1379 1380 1380 1381 1381 1381 1381 1380 1380 1379 1379 1378 1377 1376 1375 1374 1373 1372 1371 1370 1369 1368 1367 1366 1365 1364 1364 1363 1363 1363 1363
1358 1359 1361 1363 1364 1366 1367 1368 1370 1371 1372 1373 1374 1375 1375 1376 1376 1376 1376 1376 1375 1375 1374 1373 1373 1372 1371 1370 1369 1368 1367 1366 1365 1364 1363 1362 1362 1361 1361 1361 1361 1361 1361